This demonstration page uses our WeatherBlox Daily Observations layout. Learn more.

Left ArrowRight Arrow

Hourly Observations for June 29, 2022

Temp ( °F °C ) Dew Point ( °F °C ) Humidity (%) Winds ( mph kmh ) Pressure ( in mb ) Visibility ( mi km ) Precip ( " mm )
12:53 am 00:53 Mostly Clear 80 26.7 59 15 49 49 ENE 7 11 30.11 1020 10 16 0.00 0.00
1:53 am 01:53 Mostly Clear 78 25.6 59 15 52 52 E 6 9 30.11 1020 10 16 0.00 0.00
2:53 am 02:53 Mostly Clear 77 25 60 15.6 56 56 ENE 3 6 30.11 1020 10 16 0.00 0.00
3:53 am 03:53 Mostly Cloudy 77 25 59 15 54 54 E 3 6 30.11 1020 10 16 0.00 0.00
4:53 am 04:53 Mostly Cloudy 76 24.4 60 15.6 58 58 E 5 7 30.11 1020 10 16 0.00 0.00
5:53 am 05:53 Partly Cloudy 75 23.9 60 15.6 60 60 E 3 6 30.12 1020 10 16 0.00 0.00
6:53 am 06:53 Partly Cloudy 76 24.4 58 14.4 54 54 E 6 9 30.14 1021 10 16 0.00 0.00
7:53 am 07:53 Mostly Sunny 77 25 59 15 54 54 ESE 7 11 30.15 1021 10 16 0.00 0.00
8:53 am 08:53 Mostly Sunny 79 26.1 58 14.4 49 49 SE 13 20 30.17 1022 10 16 0.00 0.00
9:53 am 09:53 Mostly Sunny 81 27.2 58 14.4 45 45 ESE 9 15 30.17 1022 10 16 0.00 0.00
10:53 am 10:53 Mostly Sunny 85 29.4 56 13.3 37 37 E 8 13 30.16 1022 10 16 0.00 0.00
11:53 am 11:53 Mostly Sunny 87 30.6 57 13.9 36 36 E 7 11 30.16 1021 10 16 0.00 0.00
12:53 pm 12:53 Mostly Sunny 88 31.1 56 13.3 34 34 N 6 9 30.14 1021 10 16 0.00 0.00
1:53 pm 13:53 Mostly Sunny 91 32.8 56 13.3 31 31 ENE 7 11 30.12 1020 10 16 0.00 0.00
2:53 pm 14:53 Mostly Sunny 92 33.3 57 13.9 31 31 ENE 9 15 30.10 1019 10 16 0.00 0.00
3:53 pm 15:53 Mostly Sunny 93 33.9 56 13.3 29 29 ESE 7 11 30.08 1019 10 16 0.00 0.00
4:53 pm 16:53 Sunny 93 33.9 54 12.2 27 27 ESE 12 19 30.05 1018 10 16 0.00 0.00
5:53 pm 17:53 Mostly Sunny 93 33.9 51 10.6 24 24 NE 6 9 30.03 1017 10 16 0.00 0.00
6:53 pm 18:53 Mostly Sunny 92 33.3 50 10 24 24 E 6 9 30.03 1017 10 16 0.00 0.00
7:53 pm 19:53 Mostly Sunny 91 32.8 50 10 25 25 ENE 8 13 30.03 1017 10 16 0.00 0.00
8:53 pm 20:53 Clear 88 31.1 48 8.9 25 25 ENE 6 9 30.04 1017 10 16 0.00 0.00
9:53 pm 21:53 Clear 87 30.6 47 8.3 25 25 ENE 7 11 30.05 1018 10 16 0.00 0.00
10:53 pm 22:53 Clear 84 28.9 46 7.8 27 27 E 6 9 30.06 1018 10 16 0.00 0.00
11:53 pm 23:53 Clear 82 27.8 48 8.9 31 31 E 5 7 30.07 1018 10 16 0.00 0.00

Powered by AerisWeather